Regional Weather Roundup
Issued by NWS

Home | Current Version | Previous Version | Graphics & Text | Print | Product List | Glossary Off
Versions: 1 2 3 4 5 6 7 8 9 10 11 12 13 14 15 16 17 18 19 20 21 22 23 24 25 26 27 28 29 30 31 32 33 34 35 36 37 38 39 40 41 42 43 44 45 46 47 48 49 50

000
ASUS43 KMKX 160121
RWRWI

WISCONSIN REGIONAL WEATHER ROUNDUP
NATIONAL WEATHER SERVICE MILWAUKEE/SULLIVAN WI
800 PM CDT MON SEP 15 2014

NOTE: "FAIR" INDICATES FEW OR NO CLOUDS BELOW 12,000 FEET WITH NO
SIGNIFICANT WEATHER AND/OR OBSTRUCTIONS TO VISIBILITY.

WIZ001-002-006>008-014>016-023>028-160200-
NORTHWEST WISCONSIN

CITY           SKY/WX    TMP DP  RH WIND       PRES   REMARKS
SUPERIOR ARPT  CLEAR     47  40  74 W5        30.16S
ASHLAND        CLEAR     43  38  82 SW6       30.16S
HAYWARD        CLEAR     46  39  76 CALM      30.17S
SIREN          CLEAR     45  40  82 CALM      30.19R
RICE LAKE      CLEAR     49  38  66 CALM      30.19S
LADYSMITH      CLEAR     49  39  68 CALM      30.19R
EAU CLAIRE     CLEAR     51  39  63 NW5       30.18R
MENOMONIE      CLEAR     52  38  59 W6        30.19R
NEW RICHMOND   CLEAR     50  39  65 CALM      30.20R
OSCEOLA        CLEAR     49  43  80 CALM      30.22R
$$

WIZ003>005-009-010-017-018-160200-
NORTH CENTRAL WISCONSIN

CITY           SKY/WX    TMP DP  RH WIND       PRES   REMARKS
WOODRUFF       CLEAR     43  38  82 CALM      30.15S
RHINELANDER    CLEAR     45  37  73 NW3       30.16R
EAGLE RIVER    CLEAR     42  36  80 CALM      30.14S
LAND O LAKES   MOCLDY    44  38  82 CALM      30.15S
PHILLIPS       CLEAR     42  38  83 CALM      30.16S
TOMAHAWK       CLEAR     42  37  83 CALM      30.16S
MEDFORD        CLEAR     44  39  83 W5        30.16S
MERRILL        MOCLDY    48  38  68 N5        30.15R
$$

WIZ029-030-035-036-043>047-160200-
CENTRAL WISCONSIN

CITY           SKY/WX    TMP DP  RH WIND       PRES   REMARKS
WAUSAU         CLEAR     50  40  68 W7        30.14R
MOSINEE        CLEAR     50  39  66 NW7       30.16R
MARSHFIELD     CLEAR     46  40  79 NW7       30.16R
STEVENS POINT  CLEAR     51  39  64 NW5       30.16R
WAUPACA        CLEAR     54  49  85 W6        30.14R
WAUTOMA        CLEAR     49  48  96 CALM      30.15R
WISC RAPIDS    CLEAR     49  42  77 NW5       30.17R
CAMP DOUGLAS   PTCLDY    46  46 100 W5        30.16R
$$

WIZ011>013-019>022-031-037>040-048>050-160200-
NORTHEAST WISCONSIN

CITY           SKY/WX    TMP DP  RH WIND       PRES   REMARKS
ANTIGO         CLEAR     47  40  76 NW5       30.15R
STURGEON BAY   CLEAR     52  46  82 CALM      30.12R
GREEN BAY      CLEAR     50  48  93 SW3       30.12R
MANITOWOC      CLEAR     50  49  96 W3        30.13R
APPLETON       PTCLDY    54  46  76 SW7       30.13S
CLINTONVILLE   PTCLDY    52  45  76 W3        30.13R
OSHKOSH        CLEAR     53  47  79 CALM      30.14R
$$

WIZ032>034-041-042-053>061-160200-
SOUTHWEST WISCONSIN

CITY           SKY/WX    TMP DP  RH WIND       PRES   REMARKS
LA CROSSE      CLEAR     52  44  74 CALM      30.18R
SPARTA         CLEAR     47  45  94 CALM      30.19R
VIROQUA        FAIR      49  45  84 CALM      30.19R
BOSCOBEL       CLEAR     49  47  93 CALM      30.19R
PRAIRIE DU CHI CLEAR     49  46  90 CALM      30.19R
PLATTEVILLE    FAIR      51  45  82 CALM      30.19R
$$

WIZ056-057-062-063-064-067-068-160200-
SOUTH CENTRAL WISCONSIN

CITY           SKY/WX    TMP DP  RH WIND       PRES   REMARKS
BARABOO/DELLS  CLEAR     49  46  88 CALM      30.16R
LONE ROCK      CLEAR     54  47  77 CALM      30.18R
WATERTOWN      CLEAR     47  47 100 CALM      30.15R
MADISON        CLEAR     48  46  93 W3        30.16R
MIDDLETON      FAIR      46  45  95 CALM      30.17R
MONROE         CLEAR     50  46  87 NW7       30.17R
JANESVILLE     CLEAR     52  46  82 CALM      30.15S
$$

WIZ051-052-058>065-066-070>072-160200-
SOUTHEAST WISCONSIN

CITY           SKY/WX    TMP DP  RH WIND       PRES   REMARKS
MILWAUKEE      PTCLDY    51  48  89 NW3       30.15R
WAUKESHA       CLEAR     45  45 100 W3        30.16R
MILWAUKEE/TIMM CLEAR     50  46  87 CALM      30.15S
RACINE         PTCLDY    51  48  89 NW5       30.16R
BURLINGTON     MOCLDY    48  46  95 CALM      30.15R
KENOSHA        PTCLDY    51  49  92 N5        30.15R
FOND DU LAC    CLEAR     50  46  86 SW5       30.14R
SHEBOYGAN      CLEAR     50  47  89 W5        30.14R
WEST BEND        N/A     46  45  93 CALM      30.15R FOG
JUNEAU         CLEAR     49  47  92 CALM      30.16R
$$

LSZ147-162-160200-
LAKE SUPERIOR

STATION/POSITION TIME  TEMP    WIND        PRES    WAVE
                       AIR SEA DIR/SP/G            HT/PER
                 (UTC) (F)     (DEG/KT/KT) (MB)    (FT/S)
W MID LAKE BUOY  0050   51 47  240/ 14/ 14 1019.6S   2/ 3
DEVILS ISLAND    0100   53     230/ 10/ 11 1020.6R
PORT WING        0000   56     200/  4/  5 1021.0S
SAXON HARBOR     0000   49        CALM     1021.0S
$$

LMZ867-665-643>646-160200-
LAKE MICHIGAN

STATION/POSITION TIME  TEMP    WIND        PRES    WAVE
                       AIR SEA DIR/SP/G            HT/PER
                 (UTC) (F)     (DEG/KT/KT) (MB)    (FT/S)
N MID LAKE BUOY  0050   56 59  260/  6/  6 1019.6R   1/ 5
NORTHPORT PIER   0000   57     250/  1/  3 1019.0R
KEWAUNEE LAKESHO 0100   53     290/  3/  4 1018.9R
SHEBOYGAN LAKESH 0100   54 49  260/  4/  6 1020.8R
PORT WASHINGTON  0000   54     300/  2/  4 1020.7
ATWATER BUOY     0100   55     290/  6/  8 1021.7R
MILWAUKEE LAKESH 0100   54     320/  3/  5   N/A
S MID LAKE BUOY  0050   57 64   10/ 10/ 14 1019.9R   3/ 4
KENOSHA   LAKESH 0100   53     330/  9/ 11 1020.7R
$$

TC  - TEMPERATURE IN CELSIUS
VSB - VISIBILITY IN STATUTE MILES
WCI - WIND CHILL INDEX
HX  - HEAT INDEX




USA.gov is the U.S. government's official web portal to all federal, state and local government web resources and services.